owner,sensor,date,latitude,longitude,air_pressure(mBar),qcFlag 
TCOON,ioos:station:TCOON:013:1,2015-12-01T00:24:00Z,27.4847,-97.3181,1016.8,1111122 
TCOON,ioos:station:TCOON:013:1,2015-12-01T01:18:00Z,27.4847,-97.3181,1017.4,1111122 
TCOON,ioos:station:TCOON:013:1,2015-12-01T02:24:00Z,27.4847,-97.3181,1017.4,1111122 
TCOON,ioos:station:TCOON:013:1,2015-12-01T03:12:00Z,27.4847,-97.3181,1017.8,1111122 
TCOON,ioos:station:TCOON:013:1,2015-12-01T04:24:00Z,27.4847,-97.3181,1017.2,1111122 
TCOON,ioos:station:TCOON:013:1,2015-12-01T05:30:00Z,27.4847,-97.3181,1017.3,1111122 
TCOON,ioos:station:TCOON:013:1,2015-12-01T06:18:00Z,27.4847,-97.3181,1017.2,1111122 
TCOON,ioos:station:TCOON:013:1,2015-12-01T07:18:00Z,27.4847,-97.3181,1016.8,1111122 
TCOON,ioos:station:TCOON:013:1,2015-12-01T08:24:00Z,27.4847,-97.3181,1016.8,1111122 
TCOON,ioos:station:TCOON:013:1,2015-12-01T09:24:00Z,27.4847,-97.3181,1016.3,1111122 
TCOON,ioos:station:TCOON:013:1,2015-12-01T10:24:00Z,27.4847,-97.3181,1015.6,1111122 
TCOON,ioos:station:TCOON:013:1,2015-12-01T11:18:00Z,27.4847,-97.3181,1016.4,1111122 
TCOON,ioos:station:TCOON:013:1,2015-12-01T12:24:00Z,27.4847,-97.3181,1016.6,1111122 
TCOON,ioos:station:TCOON:013:1,2015-12-01T13:24:00Z,27.4847,-97.3181,1017.0,1111122 
TCOON,ioos:station:TCOON:013:1,2015-12-01T14:18:00Z,27.4847,-97.3181,1017.4,1111122 
TCOON,ioos:station:TCOON:013:1,2015-12-01T15:24:00Z,27.4847,-97.3181,1017.7,1111122 
TCOON,ioos:station:TCOON:013:1,2015-12-01T16:30:00Z,27.4847,-97.3181,1017.9,1111122 
TCOON,ioos:station:TCOON:013:1,2015-12-01T17:18:00Z,27.4847,-97.3181,1017.5,1111122 
TCOON,ioos:station:TCOON:013:1,2015-12-01T18:30:00Z,27.4847,-97.3181,1016.7,1111122 
TCOON,ioos:station:TCOON:013:1,2015-12-01T19:24:00Z,27.4847,-97.3181,1015.8,1111122 
TCOON,ioos:station:TCOON:013:1,2015-12-01T20:24:00Z,27.4847,-97.3181,1015.0,1111122 
TCOON,ioos:station:TCOON:013:1,2015-12-01T21:24:00Z,27.4847,-97.3181,1014.4,1111122 
TCOON,ioos:station:TCOON:013:1,2015-12-01T22:24:00Z,27.4847,-97.3181,1014.6,1111122 
TCOON,ioos:station:TCOON:013:1,2015-12-01T23:24:00Z,27.4847,-97.3181,1015.0,1111122 
TCOON,ioos:station:TCOON:013:1,2015-12-02T00:24:00Z,27.4847,-97.3181,1015.1,1111122 
TCOON,ioos:station:TCOON:013:1,2015-12-02T01:24:00Z,27.4847,-97.3181,1015.6,1111122 
TCOON,ioos:station:TCOON:013:1,2015-12-02T02:24:00Z,27.4847,-97.3181,1015.8,1111122 
TCOON,ioos:station:TCOON:013:1,2015-12-02T03:18:00Z,27.4847,-97.3181,1015.9,1111122 
TCOON,ioos:station:TCOON:013:1,2015-12-02T04:12:00Z,27.4847,-97.3181,1016.8,1111122 
TCOON,ioos:station:TCOON:013:1,2015-12-02T05:18:00Z,27.4847,-97.3181,1016.5,1111122 
TCOON,ioos:station:TCOON:013:1,2015-12-02T06:24:00Z,27.4847,-97.3181,1016.2,1111122 
TCOON,ioos:station:TCOON:013:1,2015-12-02T07:18:00Z,27.4847,-97.3181,1015.8,1111122 
TCOON,ioos:station:TCOON:013:1,2015-12-02T08:24:00Z,27.4847,-97.3181,1016.4,1111122 
TCOON,ioos:station:TCOON:013:1,2015-12-02T09:18:00Z,27.4847,-97.3181,1016.2,1111122 
TCOON,ioos:station:TCOON:013:1,2015-12-02T10:24:00Z,27.4847,-97.3181,1016.7,1111122 
TCOON,ioos:station:TCOON:013:1,2015-12-02T11:18:00Z,27.4847,-97.3181,1017.1,1111122 
TCOON,ioos:station:TCOON:013:1,2015-12-02T12:24:00Z,27.4847,-97.3181,1017.4,1111122 
TCOON,ioos:station:TCOON:013:1,2015-12-02T13:24:00Z,27.4847,-97.3181,1019.0,1111122 
TCOON,ioos:station:TCOON:013:1,2015-12-02T14:24:00Z,27.4847,-97.3181,1020.1,1111122 
TCOON,ioos:station:TCOON:013:1,2015-12-02T15:24:00Z,27.4847,-97.3181,1021.1,1111122 
TCOON,ioos:station:TCOON:013:1,2015-12-02T16:24:00Z,27.4847,-97.3181,1021.0,1111122 
TCOON,ioos:station:TCOON:013:1,2015-12-02T17:24:00Z,27.4847,-97.3181,1021.0,1111122 
TCOON,ioos:station:TCOON:013:1,2015-12-02T18:24:00Z,27.4847,-97.3181,1020.9,1111122 
TCOON,ioos:station:TCOON:013:1,2015-12-02T19:24:00Z,27.4847,-97.3181,1020.5,1111122 
TCOON,ioos:station:TCOON:013:1,2015-12-02T20:24:00Z,27.4847,-97.3181,1020.3,1111122 
TCOON,ioos:station:TCOON:013:1,2015-12-02T21:24:00Z,27.4847,-97.3181,1020.5,1111122 
TCOON,ioos:station:TCOON:013:1,2015-12-02T22:24:00Z,27.4847,-97.3181,1021.1,1111122 
TCOON,ioos:station:TCOON:013:1,2015-12-02T23:24:00Z,27.4847,-97.3181,1022.0,1111122 
TCOON,ioos:station:TCOON:013:1,2015-12-03T00:24:00Z,27.4847,-97.3181,1022.7,1111122 
TCOON,ioos:station:TCOON:013:1,2015-12-03T01:18:00Z,27.4847,-97.3181,1023.3,1111122 
TCOON,ioos:station:TCOON:013:1,2015-12-03T02:18:00Z,27.4847,-97.3181,1023.7,1111122 
TCOON,ioos:station:TCOON:013:1,2015-12-03T03:18:00Z,27.4847,-97.3181,1024.1,1111122 
TCOON,ioos:station:TCOON:013:1,2015-12-03T04:24:00Z,27.4847,-97.3181,1024.5,1111122 
TCOON,ioos:station:TCOON:013:1,2015-12-03T05:18:00Z,27.4847,-97.3181,1024.8,1111122 
TCOON,ioos:station:TCOON:013:1,2015-12-03T06:24:00Z,27.4847,-97.3181,1025.2,1111122 
TCOON,ioos:station:TCOON:013:1,2015-12-03T07:24:00Z,27.4847,-97.3181,1025.4,1111122 
TCOON,ioos:station:TCOON:013:1,2015-12-03T08:24:00Z,27.4847,-97.3181,1025.4,1111122 
TCOON,ioos:station:TCOON:013:1,2015-12-03T09:24:00Z,27.4847,-97.3181,1025.6,1111122 
TCOON,ioos:station:TCOON:013:1,2015-12-03T10:24:00Z,27.4847,-97.3181,1026.0,1111122 
TCOON,ioos:station:TCOON:013:1,2015-12-03T11:24:00Z,27.4847,-97.3181,1026.3,1111122 
TCOON,ioos:station:TCOON:013:1,2015-12-03T12:24:00Z,27.4847,-97.3181,1027.1,1111122 
TCOON,ioos:station:TCOON:013:1,2015-12-03T13:18:00Z,27.4847,-97.3181,1027.6,1111122 
TCOON,ioos:station:TCOON:013:1,2015-12-03T14:18:00Z,27.4847,-97.3181,1028.4,1111122 
TCOON,ioos:station:TCOON:013:1,2015-12-03T15:30:00Z,27.4847,-97.3181,1029.5,1111122 
TCOON,ioos:station:TCOON:013:1,2015-12-03T16:24:00Z,27.4847,-97.3181,1029.7,1111122 
TCOON,ioos:station:TCOON:013:1,2015-12-03T17:24:00Z,27.4847,-97.3181,1029.2,1111122 
TCOON,ioos:station:TCOON:013:1,2015-12-03T18:24:00Z,27.4847,-97.3181,1028.5,1111122 
TCOON,ioos:station:TCOON:013:1,2015-12-03T19:18:00Z,27.4847,-97.3181,1027.6,1111122 
TCOON,ioos:station:TCOON:013:1,2015-12-03T20:24:00Z,27.4847,-97.3181,1027.1,1111122 
TCOON,ioos:station:TCOON:013:1,2015-12-03T21:24:00Z,27.4847,-97.3181,1026.9,1111122 
TCOON,ioos:station:TCOON:013:1,2015-12-03T22:24:00Z,27.4847,-97.3181,1026.8,1111122 
TCOON,ioos:station:TCOON:013:1,2015-12-03T23:24:00Z,27.4847,-97.3181,1026.9,1111122 
TCOON,ioos:station:TCOON:013:1,2015-12-04T00:24:00Z,27.4847,-97.3181,1027.5,1111122 
TCOON,ioos:station:TCOON:013:1,2015-12-04T01:18:00Z,27.4847,-97.3181,1028.3,1111122 
TCOON,ioos:station:TCOON:013:1,2015-12-04T02:30:00Z,27.4847,-97.3181,1029.0,1111122 
TCOON,ioos:station:TCOON:013:1,2015-12-04T03:18:00Z,27.4847,-97.3181,1029.1,1111122 
TCOON,ioos:station:TCOON:013:1,2015-12-04T04:24:00Z,27.4847,-97.3181,1029.2,1111122 
TCOON,ioos:station:TCOON:013:1,2015-12-04T05:24:00Z,27.4847,-97.3181,1028.9,1111122 
TCOON,ioos:station:TCOON:013:1,2015-12-04T06:24:00Z,27.4847,-97.3181,1028.5,1111122 
TCOON,ioos:station:TCOON:013:1,2015-12-04T07:24:00Z,27.4847,-97.3181,1028.4,1111122 
TCOON,ioos:station:TCOON:013:1,2015-12-04T08:24:00Z,27.4847,-97.3181,1028.2,1111122 
TCOON,ioos:station:TCOON:013:1,2015-12-04T09:24:00Z,27.4847,-97.3181,1028.3,1111122 
TCOON,ioos:station:TCOON:013:1,2015-12-04T10:24:00Z,27.4847,-97.3181,1028.4,1111122 
TCOON,ioos:station:TCOON:013:1,2015-12-04T11:24:00Z,27.4847,-97.3181,1028.8,1111122 
TCOON,ioos:station:TCOON:013:1,2015-12-04T12:24:00Z,27.4847,-97.3181,1029.5,1111122 
TCOON,ioos:station:TCOON:013:1,2015-12-04T13:24:00Z,27.4847,-97.3181,1030.1,1111122 
TCOON,ioos:station:TCOON:013:1,2015-12-04T14:24:00Z,27.4847,-97.3181,1030.3,1111122 
TCOON,ioos:station:TCOON:013:1,2015-12-04T15:24:00Z,27.4847,-97.3181,1030.9,1111122 
TCOON,ioos:station:TCOON:013:1,2015-12-04T16:30:00Z,27.4847,-97.3181,1031.2,1111122 
TCOON,ioos:station:TCOON:013:1,2015-12-04T17:24:00Z,27.4847,-97.3181,1031.2,1111122 
TCOON,ioos:station:TCOON:013:1,2015-12-04T18:12:00Z,27.4847,-97.3181,1030.7,1111122 
TCOON,ioos:station:TCOON:013:1,2015-12-05T00:42:00Z,27.4847,-97.3181,1029.3,1111122 
TCOON,ioos:station:TCOON:013:1,2015-12-05T06:42:00Z,27.4847,-97.3181,1030.0,1111122 
TCOON,ioos:station:TCOON:013:1,2015-12-05T12:42:00Z,27.4847,-97.3181,1029.2,1111122 
TCOON,ioos:station:TCOON:013:1,2015-12-05T18:42:00Z,27.4847,-97.3181,1029.6,1111122 
TCOON,ioos:station:TCOON:013:1,2015-12-06T00:42:00Z,27.4847,-97.3181,1028.6,1111122 
TCOON,ioos:station:TCOON:013:1,2015-12-06T06:42:00Z,27.4847,-97.3181,1028.2,1111122 
TCOON,ioos:station:TCOON:013:1,2015-12-06T11:12:00Z,27.4847,-97.3181,1028.2,1111122 
TCOON,ioos:station:TCOON:013:1,2015-12-06T16:36:00Z,27.4847,-97.3181,1030.5,1111122 
TCOON,ioos:station:TCOON:013:1,2015-12-06T17:12:00Z,27.4847,-97.3181,1030.4,1111122 
TCOON,ioos:station:TCOON:013:1,2015-12-06T18:12:00Z,27.4847,-97.3181,1029.5,1111122 
TCOON,ioos:station:TCOON:013:1,2015-12-06T19:12:00Z,27.4847,-97.3181,1028.5,1111122 
TCOON,ioos:station:TCOON:013:1,2015-12-06T20:12:00Z,27.4847,-97.3181,1027.5,1111122 
TCOON,ioos:station:TCOON:013:1,2015-12-06T21:12:00Z,27.4847,-97.3181,1026.8,1111122 
TCOON,ioos:station:TCOON:013:1,2015-12-06T22:12:00Z,27.4847,-97.3181,1026.6,1111122 
TCOON,ioos:station:TCOON:013:1,2015-12-06T23:12:00Z,27.4847,-97.3181,1026.8,1111122 
TCOON,ioos:station:TCOON:013:1,2015-12-07T00:12:00Z,27.4847,-97.3181,1026.8,1111122 
TCOON,ioos:station:TCOON:013:1,2015-12-07T01:12:00Z,27.4847,-97.3181,1027.6,1111122 
TCOON,ioos:station:TCOON:013:1,2015-12-07T02:18:00Z,27.4847,-97.3181,1027.8,1111122 
TCOON,ioos:station:TCOON:013:1,2015-12-07T03:12:00Z,27.4847,-97.3181,1027.8,1111122 
TCOON,ioos:station:TCOON:013:1,2015-12-07T05:00:00Z,27.4847,-97.3181,1027.6,1111122 
TCOON,ioos:station:TCOON:013:1,2015-12-07T06:12:00Z,27.4847,-97.3181,1027.4,1111122 
TCOON,ioos:station:TCOON:013:1,2015-12-07T07:12:00Z,27.4847,-97.3181,1026.9,1111122 
TCOON,ioos:station:TCOON:013:1,2015-12-07T08:12:00Z,27.4847,-97.3181,1026.6,1111122 
TCOON,ioos:station:TCOON:013:1,2015-12-07T09:12:00Z,27.4847,-97.3181,1026.3,1111122 
TCOON,ioos:station:TCOON:013:1,2015-12-07T10:12:00Z,27.4847,-97.3181,1026.1,1111122 
TCOON,ioos:station:TCOON:013:1,2015-12-07T11:12:00Z,27.4847,-97.3181,1025.9,1111122 
TCOON,ioos:station:TCOON:013:1,2015-12-07T12:12:00Z,27.4847,-97.3181,1026.0,1111122 
TCOON,ioos:station:TCOON:013:1,2015-12-07T13:12:00Z,27.4847,-97.3181,1026.3,1111122 
TCOON,ioos:station:TCOON:013:1,2015-12-07T14:12:00Z,27.4847,-97.3181,1026.7,1111122 
TCOON,ioos:station:TCOON:013:1,2015-12-07T15:12:00Z,27.4847,-97.3181,1027.1,1111122 
TCOON,ioos:station:TCOON:013:1,2015-12-07T16:12:00Z,27.4847,-97.3181,1027.2,1111122 
TCOON,ioos:station:TCOON:013:1,2015-12-07T17:12:00Z,27.4847,-97.3181,1026.6,1111122 
TCOON,ioos:station:TCOON:013:1,2015-12-07T18:12:00Z,27.4847,-97.3181,1025.3,1111122 
TCOON,ioos:station:TCOON:013:1,2015-12-07T19:12:00Z,27.4847,-97.3181,1024.1,1111122 
TCOON,ioos:station:TCOON:013:1,2015-12-07T21:12:00Z,27.4847,-97.3181,1022.4,1111122 
TCOON,ioos:station:TCOON:013:1,2015-12-07T22:12:00Z,27.4847,-97.3181,1022.1,1111122 
TCOON,ioos:station:TCOON:013:1,2015-12-07T23:12:00Z,27.4847,-97.3181,1022.1,1111122 
TCOON,ioos:station:TCOON:013:1,2015-12-08T00:12:00Z,27.4847,-97.3181,1022.1,1111122 
TCOON,ioos:station:TCOON:013:1,2015-12-08T01:36:00Z,27.4847,-97.3181,1022.1,1111122 
TCOON,ioos:station:TCOON:013:1,2015-12-08T02:12:00Z,27.4847,-97.3181,1022.4,1111122 
TCOON,ioos:station:TCOON:013:1,2015-12-08T03:12:00Z,27.4847,-97.3181,1022.7,1111122 
TCOON,ioos:station:TCOON:013:1,2015-12-08T04:12:00Z,27.4847,-97.3181,1022.4,1111122 
TCOON,ioos:station:TCOON:013:1,2015-12-08T05:12:00Z,27.4847,-97.3181,1022.3,1111122 
TCOON,ioos:station:TCOON:013:1,2015-12-08T06:12:00Z,27.4847,-97.3181,1021.6,1111122 
TCOON,ioos:station:TCOON:013:1,2015-12-08T07:12:00Z,27.4847,-97.3181,1021.1,1111122 
TCOON,ioos:station:TCOON:013:1,2015-12-08T08:12:00Z,27.4847,-97.3181,1020.3,1111122 
TCOON,ioos:station:TCOON:013:1,2015-12-08T09:18:00Z,27.4847,-97.3181,1019.6,1111122 
TCOON,ioos:station:TCOON:013:1,2015-12-08T10:12:00Z,27.4847,-97.3181,1019.3,1111122 
TCOON,ioos:station:TCOON:013:1,2015-12-08T11:12:00Z,27.4847,-97.3181,1019.0,1111122 
TCOON,ioos:station:TCOON:013:1,2015-12-08T12:12:00Z,27.4847,-97.3181,1019.2,1111122 
TCOON,ioos:station:TCOON:013:1,2015-12-08T13:12:00Z,27.4847,-97.3181,1019.5,1111122 
TCOON,ioos:station:TCOON:013:1,2015-12-08T14:12:00Z,27.4847,-97.3181,1020.2,1111122 
TCOON,ioos:station:TCOON:013:1,2015-12-08T15:12:00Z,27.4847,-97.3181,1020.6,1111122 
TCOON,ioos:station:TCOON:013:1,2015-12-08T16:12:00Z,27.4847,-97.3181,1021.1,1111122 
TCOON,ioos:station:TCOON:013:1,2015-12-08T17:12:00Z,27.4847,-97.3181,1020.5,1111122 
TCOON,ioos:station:TCOON:013:1,2015-12-08T18:12:00Z,27.4847,-97.3181,1019.2,1111122 
TCOON,ioos:station:TCOON:013:1,2015-12-08T19:12:00Z,27.4847,-97.3181,1017.9,1111122 
TCOON,ioos:station:TCOON:013:1,2015-12-08T20:12:00Z,27.4847,-97.3181,1016.7,1111122 
TCOON,ioos:station:TCOON:013:1,2015-12-08T21:12:00Z,27.4847,-97.3181,1016.2,1111122 
TCOON,ioos:station:TCOON:013:1,2015-12-08T22:12:00Z,27.4847,-97.3181,1015.6,1111122 
TCOON,ioos:station:TCOON:013:1,2015-12-08T23:12:00Z,27.4847,-97.3181,1015.8,1111122 
TCOON,ioos:station:TCOON:013:1,2015-12-09T00:12:00Z,27.4847,-97.3181,1016.0,1111122 
TCOON,ioos:station:TCOON:013:1,2015-12-09T01:12:00Z,27.4847,-97.3181,1016.2,1111122 
TCOON,ioos:station:TCOON:013:1,2015-12-09T02:12:00Z,27.4847,-97.3181,1016.5,1111122 
TCOON,ioos:station:TCOON:013:1,2015-12-09T03:12:00Z,27.4847,-97.3181,1016.6,1111122 
TCOON,ioos:station:TCOON:013:1,2015-12-09T04:12:00Z,27.4847,-97.3181,1016.5,1111122 
TCOON,ioos:station:TCOON:013:1,2015-12-09T05:12:00Z,27.4847,-97.3181,1017.2,1111122 
TCOON,ioos:station:TCOON:013:1,2015-12-09T06:12:00Z,27.4847,-97.3181,1016.3,1111122 
TCOON,ioos:station:TCOON:013:1,2015-12-09T07:12:00Z,27.4847,-97.3181,1016.4,1111122 
TCOON,ioos:station:TCOON:013:1,2015-12-09T08:12:00Z,27.4847,-97.3181,1015.9,1111122 
TCOON,ioos:station:TCOON:013:1,2015-12-09T09:18:00Z,27.4847,-97.3181,1015.8,1111122 
TCOON,ioos:station:TCOON:013:1,2015-12-09T10:12:00Z,27.4847,-97.3181,1015.6,1111122 
TCOON,ioos:station:TCOON:013:1,2015-12-09T11:12:00Z,27.4847,-97.3181,1015.8,1111122 
TCOON,ioos:station:TCOON:013:1,2015-12-09T12:12:00Z,27.4847,-97.3181,1016.4,1111122 
TCOON,ioos:station:TCOON:013:1,2015-12-09T13:12:00Z,27.4847,-97.3181,1017.1,1111122 
TCOON,ioos:station:TCOON:013:1,2015-12-09T14:12:00Z,27.4847,-97.3181,1017.9,1111122 
TCOON,ioos:station:TCOON:013:1,2015-12-09T15:12:00Z,27.4847,-97.3181,1018.4,1111122 
TCOON,ioos:station:TCOON:013:1,2015-12-09T16:12:00Z,27.4847,-97.3181,1018.5,1111122 
TCOON,ioos:station:TCOON:013:1,2015-12-09T17:12:00Z,27.4847,-97.3181,1018.1,1111122 
TCOON,ioos:station:TCOON:013:1,2015-12-09T18:12:00Z,27.4847,-97.3181,1017.2,1111122 
TCOON,ioos:station:TCOON:013:1,2015-12-09T19:12:00Z,27.4847,-97.3181,1015.7,1111122 
TCOON,ioos:station:TCOON:013:1,2015-12-09T20:12:00Z,27.4847,-97.3181,1014.8,1111122 
TCOON,ioos:station:TCOON:013:1,2015-12-09T21:12:00Z,27.4847,-97.3181,1014.3,1111122 
TCOON,ioos:station:TCOON:013:1,2015-12-09T22:12:00Z,27.4847,-97.3181,1014.0,1111122 
TCOON,ioos:station:TCOON:013:1,2015-12-09T23:12:00Z,27.4847,-97.3181,1013.9,1111122 
TCOON,ioos:station:TCOON:013:1,2015-12-10T00:12:00Z,27.4847,-97.3181,1014.1,1111122 
TCOON,ioos:station:TCOON:013:1,2015-12-10T01:12:00Z,27.4847,-97.3181,1014.4,1111122 
TCOON,ioos:station:TCOON:013:1,2015-12-10T02:12:00Z,27.4847,-97.3181,1014.7,1111122 
TCOON,ioos:station:TCOON:013:1,2015-12-10T03:12:00Z,27.4847,-97.3181,1014.8,1111122 
TCOON,ioos:station:TCOON:013:1,2015-12-10T04:12:00Z,27.4847,-97.3181,1014.7,1111122 
TCOON,ioos:station:TCOON:013:1,2015-12-10T05:12:00Z,27.4847,-97.3181,1014.7,1111122 
TCOON,ioos:station:TCOON:013:1,2015-12-10T06:12:00Z,27.4847,-97.3181,1014.1,1111122 
TCOON,ioos:station:TCOON:013:1,2015-12-10T07:12:00Z,27.4847,-97.3181,1013.5,1111122 
TCOON,ioos:station:TCOON:013:1,2015-12-10T08:12:00Z,27.4847,-97.3181,1013.6,1111122 
TCOON,ioos:station:TCOON:013:1,2015-12-10T09:18:00Z,27.4847,-97.3181,1013.1,1111122 
TCOON,ioos:station:TCOON:013:1,2015-12-10T10:12:00Z,27.4847,-97.3181,1012.9,1111122 
TCOON,ioos:station:TCOON:013:1,2015-12-10T11:12:00Z,27.4847,-97.3181,1012.9,1111122 
TCOON,ioos:station:TCOON:013:1,2015-12-10T12:12:00Z,27.4847,-97.3181,1013.2,1111122 
TCOON,ioos:station:TCOON:013:1,2015-12-10T13:12:00Z,27.4847,-97.3181,1013.6,1111122 
TCOON,ioos:station:TCOON:013:1,2015-12-10T14:12:00Z,27.4847,-97.3181,1013.8,1111122 
TCOON,ioos:station:TCOON:013:1,2015-12-10T15:12:00Z,27.4847,-97.3181,1014.4,1111122 
TCOON,ioos:station:TCOON:013:1,2015-12-10T16:12:00Z,27.4847,-97.3181,1014.7,1111122 
TCOON,ioos:station:TCOON:013:1,2015-12-10T17:12:00Z,27.4847,-97.3181,1014.3,1111122 
TCOON,ioos:station:TCOON:013:1,2015-12-10T18:12:00Z,27.4847,-97.3181,1013.5,1111122 
TCOON,ioos:station:TCOON:013:1,2015-12-10T19:12:00Z,27.4847,-97.3181,1011.8,1111122 
TCOON,ioos:station:TCOON:013:1,2015-12-10T20:12:00Z,27.4847,-97.3181,1010.7,1111122 
TCOON,ioos:station:TCOON:013:1,2015-12-10T21:12:00Z,27.4847,-97.3181,1010.4,1111122 
TCOON,ioos:station:TCOON:013:1,2015-12-10T22:12:00Z,27.4847,-97.3181,1010.1,1111122 
TCOON,ioos:station:TCOON:013:1,2015-12-10T23:12:00Z,27.4847,-97.3181,1009.7,1111122 
TCOON,ioos:station:TCOON:013:1,2015-12-11T00:12:00Z,27.4847,-97.3181,1010.1,1111122 
TCOON,ioos:station:TCOON:013:1,2015-12-11T01:12:00Z,27.4847,-97.3181,1010.5,1111122 
TCOON,ioos:station:TCOON:013:1,2015-12-11T02:12:00Z,27.4847,-97.3181,1011.3,1111122 
TCOON,ioos:station:TCOON:013:1,2015-12-11T03:12:00Z,27.4847,-97.3181,1011.6,1111122 
TCOON,ioos:station:TCOON:013:1,2015-12-11T04:12:00Z,27.4847,-97.3181,1011.7,1111122 
TCOON,ioos:station:TCOON:013:1,2015-12-11T05:12:00Z,27.4847,-97.3181,1011.2,1111122 
TCOON,ioos:station:TCOON:013:1,2015-12-11T06:12:00Z,27.4847,-97.3181,1011.0,1111122 
TCOON,ioos:station:TCOON:013:1,2015-12-11T07:12:00Z,27.4847,-97.3181,1011.0,1111122 
TCOON,ioos:station:TCOON:013:1,2015-12-11T08:12:00Z,27.4847,-97.3181,1010.9,1111122 
TCOON,ioos:station:TCOON:013:1,2015-12-11T09:18:00Z,27.4847,-97.3181,1010.4,1111122 
TCOON,ioos:station:TCOON:013:1,2015-12-11T10:12:00Z,27.4847,-97.3181,1010.3,1111122 
TCOON,ioos:station:TCOON:013:1,2015-12-11T11:12:00Z,27.4847,-97.3181,1009.9,1111122 
TCOON,ioos:station:TCOON:013:1,2015-12-11T12:12:00Z,27.4847,-97.3181,1010.4,1111122 
TCOON,ioos:station:TCOON:013:1,2015-12-11T13:12:00Z,27.4847,-97.3181,1010.7,1111122 
TCOON,ioos:station:TCOON:013:1,2015-12-11T14:12:00Z,27.4847,-97.3181,1011.4,1111122 
TCOON,ioos:station:TCOON:013:1,2015-12-11T15:12:00Z,27.4847,-97.3181,1012.0,1111122 
TCOON,ioos:station:TCOON:013:1,2015-12-11T16:12:00Z,27.4847,-97.3181,1012.3,1111122 
TCOON,ioos:station:TCOON:013:1,2015-12-11T17:12:00Z,27.4847,-97.3181,1012.4,1111122 
TCOON,ioos:station:TCOON:013:1,2015-12-11T18:18:00Z,27.4847,-97.3181,1011.5,1111122 
TCOON,ioos:station:TCOON:013:1,2015-12-11T19:12:00Z,27.4847,-97.3181,1010.4,1111122 
TCOON,ioos:station:TCOON:013:1,2015-12-11T20:12:00Z,27.4847,-97.3181,1009.7,1111122 
TCOON,ioos:station:TCOON:013:1,2015-12-11T21:12:00Z,27.4847,-97.3181,1009.4,1111122 
TCOON,ioos:station:TCOON:013:1,2015-12-11T22:12:00Z,27.4847,-97.3181,1009.5,1111122 
TCOON,ioos:station:TCOON:013:1,2015-12-11T23:12:00Z,27.4847,-97.3181,1009.4,1111122 
TCOON,ioos:station:TCOON:013:1,2015-12-12T00:12:00Z,27.4847,-97.3181,1009.9,1111122 
TCOON,ioos:station:TCOON:013:1,2015-12-12T01:12:00Z,27.4847,-97.3181,1010.3,1111122 
TCOON,ioos:station:TCOON:013:1,2015-12-12T02:12:00Z,27.4847,-97.3181,1010.2,1111122 
TCOON,ioos:station:TCOON:013:1,2015-12-12T03:12:00Z,27.4847,-97.3181,1010.5,1111122 
TCOON,ioos:station:TCOON:013:1,2015-12-12T04:18:00Z,27.4847,-97.3181,1010.9,1111122 
TCOON,ioos:station:TCOON:013:1,2015-12-12T05:12:00Z,27.4847,-97.3181,1010.8,1111122 
TCOON,ioos:station:TCOON:013:1,2015-12-12T06:18:00Z,27.4847,-97.3181,1010.9,1111122 
TCOON,ioos:station:TCOON:013:1,2015-12-12T07:12:00Z,27.4847,-97.3181,1010.6,1111122 
TCOON,ioos:station:TCOON:013:1,2015-12-12T08:12:00Z,27.4847,-97.3181,1010.4,1111122 
TCOON,ioos:station:TCOON:013:1,2015-12-12T09:12:00Z,27.4847,-97.3181,1010.1,1111122 
TCOON,ioos:station:TCOON:013:1,2015-12-12T10:12:00Z,27.4847,-97.3181,1009.3,1111122 
TCOON,ioos:station:TCOON:013:1,2015-12-12T11:12:00Z,27.4847,-97.3181,1009.1,1111122 
TCOON,ioos:station:TCOON:013:1,2015-12-12T12:12:00Z,27.4847,-97.3181,1009.5,1111122 
TCOON,ioos:station:TCOON:013:1,2015-12-12T13:12:00Z,27.4847,-97.3181,1009.8,1111122 
TCOON,ioos:station:TCOON:013:1,2015-12-12T14:12:00Z,27.4847,-97.3181,1010.4,1111122 
TCOON,ioos:station:TCOON:013:1,2015-12-12T15:12:00Z,27.4847,-97.3181,1011.0,1111122 
TCOON,ioos:station:TCOON:013:1,2015-12-12T16:12:00Z,27.4847,-97.3181,1011.6,1111122 
TCOON,ioos:station:TCOON:013:1,2015-12-12T17:12:00Z,27.4847,-97.3181,1011.2,1111122 
TCOON,ioos:station:TCOON:013:1,2015-12-12T18:12:00Z,27.4847,-97.3181,1010.4,1111122 
TCOON,ioos:station:TCOON:013:1,2015-12-12T19:12:00Z,27.4847,-97.3181,1009.5,1111122 
TCOON,ioos:station:TCOON:013:1,2015-12-12T20:12:00Z,27.4847,-97.3181,1008.1,1111122 
TCOON,ioos:station:TCOON:013:1,2015-12-12T21:12:00Z,27.4847,-97.3181,1007.5,1111122 
TCOON,ioos:station:TCOON:013:1,2015-12-12T22:12:00Z,27.4847,-97.3181,1006.9,1111122 
TCOON,ioos:station:TCOON:013:1,2015-12-12T23:12:00Z,27.4847,-97.3181,1006.9,1111122 
TCOON,ioos:station:TCOON:013:1,2015-12-13T00:12:00Z,27.4847,-97.3181,1007.1,1111122 
TCOON,ioos:station:TCOON:013:1,2015-12-13T01:12:00Z,27.4847,-97.3181,1007.4,1111122 
TCOON,ioos:station:TCOON:013:1,2015-12-13T02:12:00Z,27.4847,-97.3181,1007.9,1111122 
TCOON,ioos:station:TCOON:013:1,2015-12-13T03:12:00Z,27.4847,-97.3181,1007.8,1111122 
TCOON,ioos:station:TCOON:013:1,2015-12-13T04:12:00Z,27.4847,-97.3181,1007.8,1111122 
TCOON,ioos:station:TCOON:013:1,2015-12-13T05:12:00Z,27.4847,-97.3181,1006.9,1111122 
TCOON,ioos:station:TCOON:013:1,2015-12-13T06:12:00Z,27.4847,-97.3181,1005.9,1111122 
TCOON,ioos:station:TCOON:013:1,2015-12-13T07:12:00Z,27.4847,-97.3181,1005.0,1111122 
TCOON,ioos:station:TCOON:013:1,2015-12-13T08:12:00Z,27.4847,-97.3181,1004.4,1111122 
TCOON,ioos:station:TCOON:013:1,2015-12-13T09:12:00Z,27.4847,-97.3181,1002.2,1111122 
TCOON,ioos:station:TCOON:013:1,2015-12-13T10:12:00Z,27.4847,-97.3181,1003.6,1111122 
TCOON,ioos:station:TCOON:013:1,2015-12-13T11:12:00Z,27.4847,-97.3181,1001.5,1111122 
TCOON,ioos:station:TCOON:013:1,2015-12-13T12:12:00Z,27.4847,-97.3181,1003.2,1111122 
TCOON,ioos:station:TCOON:013:1,2015-12-13T13:12:00Z,27.4847,-97.3181,1007.3,1111122 
TCOON,ioos:station:TCOON:013:1,2015-12-13T14:12:00Z,27.4847,-97.3181,1008.7,1111122 
TCOON,ioos:station:TCOON:013:1,2015-12-13T15:12:00Z,27.4847,-97.3181,1009.3,1111122 
TCOON,ioos:station:TCOON:013:1,2015-12-13T16:12:00Z,27.4847,-97.3181,1009.1,1111122 
TCOON,ioos:station:TCOON:013:1,2015-12-13T17:12:00Z,27.4847,-97.3181,1009.5,1111122 
TCOON,ioos:station:TCOON:013:1,2015-12-13T18:12:00Z,27.4847,-97.3181,1008.9,1111122 
TCOON,ioos:station:TCOON:013:1,2015-12-13T19:12:00Z,27.4847,-97.3181,1008.6,1111122 
TCOON,ioos:station:TCOON:013:1,2015-12-13T20:12:00Z,27.4847,-97.3181,1007.7,1111122 
TCOON,ioos:station:TCOON:013:1,2015-12-13T21:12:00Z,27.4847,-97.3181,1008.1,1111122 
TCOON,ioos:station:TCOON:013:1,2015-12-13T22:12:00Z,27.4847,-97.3181,1007.9,1111122 
TCOON,ioos:station:TCOON:013:1,2015-12-13T23:12:00Z,27.4847,-97.3181,1008.7,1111122 
TCOON,ioos:station:TCOON:013:1,2015-12-14T00:12:00Z,27.4847,-97.3181,1009.1,1111122 
TCOON,ioos:station:TCOON:013:1,2015-12-14T01:12:00Z,27.4847,-97.3181,1009.1,1111122 
TCOON,ioos:station:TCOON:013:1,2015-12-14T02:12:00Z,27.4847,-97.3181,1009.3,1111122 
TCOON,ioos:station:TCOON:013:1,2015-12-14T03:12:00Z,27.4847,-97.3181,1009.8,1111122 
TCOON,ioos:station:TCOON:013:1,2015-12-14T04:12:00Z,27.4847,-97.3181,1010.4,1111122 
TCOON,ioos:station:TCOON:013:1,2015-12-14T05:12:00Z,27.4847,-97.3181,1010.4,1111122 
TCOON,ioos:station:TCOON:013:1,2015-12-14T06:18:00Z,27.4847,-97.3181,1011.0,1111122 
TCOON,ioos:station:TCOON:013:1,2015-12-14T07:12:00Z,27.4847,-97.3181,1011.2,1111122 
TCOON,ioos:station:TCOON:013:1,2015-12-14T08:12:00Z,27.4847,-97.3181,1011.1,1111122 